Flag for Germany Weather past 2 weeks in Herten, North Rhine-Westphalia, Germany

Now
45 °F

Passing clouds.


Feels Like: 42 °F
Forecast: 40 / 50 °F
Wind: 6 mph from West

Location: Essen

Current Time: Mar 30, 2015 at 8:03:35 PM

Latest Report: Mar 30, 2015 at 7:00 PM


Visibility: 34 mi

Pressure: 29.84 "Hg

Humidity: 50%

Dew point: 27 °F

Location of HertenLocation

Historic Weather in Herten — Graph

°F

Herten temperature yesterday

Maximum temperature yesterday: 52 °F (at 1:00 AM)
Minimum temperature yesterday: 45 °F (at 11:00 PM)
Average temperature yesterday: 49 °F

Past Weeks' High & Low Weather Summary

 TemperatureHumidityPressure
High62 °F (Mar 17, 3:00 PM)100% (Mar 19, 12:00 AM)30.39 "Hg (Mar 19, 12:00 AM)
Low34 °F (Mar 23, 4:00 AM)39% (Mar 17, 3:00 PM)29.23 "Hg (Mar 29, 8:00 PM)
Average44 °F81%30.02 "Hg
* Reported Mar 15 6:00 PM — Mar 30 7:00 PM, Herten, Weather by CustomWeather, © 2015

Note: Actual official high and low records may vary slightly from our data, if they occured in-between our weather recording intervals... More about our weather records

Advertising

Herten weather history for previous 24 hours

 ConditionsComfort  
Time TempWeatherWind HumidityBarometerVisibility
7:00 PM
Mon, Mar 30
45 °FPassing clouds.6 mph50%29.84 "Hg34 mi
6:00 PM45 °FScattered clouds.7 mph51%29.83 "Hg34 mi
5:00 PM45 °FPartly sunny.7 mph56%29.80 "Hg28 mi
4:00 PM47 °FOvercast.6 mph52%29.76 "Hg31 mi
3:00 PM46 °FOvercast.7 mph63%29.73 "Hg28 mi
2:00 PM42 °FLow clouds.6 mph82%29.70 "Hg25 mi
1:00 PM45 °FScattered clouds.7 mph74%29.67 "Hg16 mi
12:00 PM46 °FOvercast.6 mph63%29.64 "Hg34 mi
11:00 AM44 °FOvercast.7 mph62%29.62 "Hg25 mi
10:00 AM43 °FOvercast.7 mph70%29.59 "Hg25 mi
9:00 AM43 °FPartly sunny.6 mph80%29.55 "Hg28 mi
8:00 AM42 °FOvercast.5 mph80%29.50 "Hg25 mi
7:00 AM41 °FOvercast.6 mph84%29.47 "Hg31 mi
6:00 AM41 °FClear.6 mph85%29.47 "Hg31 mi
5:00 AM42 °FOvercast.6 mph86%29.44 "Hg28 mi
4:00 AM41 °FPassing clouds.5 mph94%29.44 "Hg28 mi
3:00 AM44 °FLow clouds.6 mph88%29.41 "Hg22 mi
2:00 AM45 °FOvercast.6 mph81%29.41 "Hg25 mi
1:00 AM44 °FOvercast.7 mph84%29.41 "Hg25 mi
12:00 AM45 °FOvercast.6 mph85%29.38 "Hg22 mi
11:00 PM
Sun, Mar 29
45 °FPassing clouds.7 mph81%29.38 "Hg16 mi
10:00 PM47 °FDrizzle. Low clouds.7 mph82%29.32 "Hg19 mi
9:00 PM47 °FLow clouds.9 mph90%29.29 "Hg37 mi
8:00 PM51 °FOvercast.9 mph88%29.23 "Hg28 mi
Weather by CustomWeather, © 2015

See weather overviewHow to use our weather pages